[[{"header":{"parameterUnit":"m.s-1","parameterCategory":1,"la1":30.2992,"la2":30.254,"lo1":-89.0895,"lo2":-89.0443,"dy":0.0025,"dx":0.0025,"nx":19,"ny":19,"refTime":"2026-04-25T03:00:00:Z","depth":0,"parameterNumber":2,"parameterNumberName":"U-component_of_WINDS"},"data":[0,0,0,-2.571,-2.5709,-2.5664,-2.5664,-2.5628,-2.5628,0,0,0,0,0,0,0,0,0,0,0,-2.5737,-2.5737,-2.571,-2.5709,-2.5664,-2.5664,-2.5628,-2.5628,0,0,0,0,0,0,0,0,0,0,0,-2.5737,-2.5737,-2.5738,-2.5709,-2.5665,-2.5664,-2.5628,-2.5654,0,0,0,0,0,0,0,0,0,0,-2.5694,-2.5733,-2.5737,-2.5738,-2.5709,-2.5665,-2.5664,-2.5655,-2.5652,-2.5657,0,-2.5667,0,-2.5647,-2.5627,-2.5627,0,0,0,-2.5698,-2.5735,-2.571,-2.5738,-2.5709,-2.5665,-2.5682,-2.5653,-2.565,-2.5654,-2.5666,-2.5664,-2.5647,-2.5627,-2.5626,-2.5696,-2.5696,0,0,-2.5701,-2.5736,-2.5713,-2.5709,-2.5719,-2.5683,-2.568,-2.5651,-2.5666,-2.5666,-2.5663,-2.5646,-2.5626,-2.5626,-2.5695,-2.5696,0,0,0,-2.5715,-2.5739,-2.5714,-2.5712,-2.5702,-2.5682,-2.5679,-2.5667,-2.5656,-2.5663,-2.5645,-2.5626,-2.5626,-2.5694,-2.5695,-2.577,0,0,0,-2.5716,-2.5747,-2.5716,-2.5737,-2.5703,-2.5684,-2.5696,-2.5658,-2.5654,-2.5646,-2.5626,-2.5626,-2.5693,-2.5695,-2.5766,-2.5798,0,0,0,-2.5735,-2.5749,-2.5747,-2.5739,-2.5721,-2.5684,-2.5671,-2.5657,-2.5644,-2.5627,-2.5626,-2.5692,-2.5694,-2.5762,-2.5792,-2.5825,0,0,0,-2.5765,-2.5815,-2.5749,-2.5798,-2.5722,-2.5732,-2.5671,-2.5676,-2.567,-2.5626,-2.5693,-2.5695,-2.5761,-2.5788,-2.5821,-2.5857,-2.5877,0,0,-2.5847,-2.5826,-2.5851,-2.5792,-2.5822,-2.5736,-2.5776,-2.5737,-2.5703,-2.57,-2.5701,-2.5767,-2.5792,-2.5824,-2.5976,-2.5992,0,0,0,-2.5889,-2.5908,-2.5908,-2.5905,-2.5877,-2.5855,-2.5806,-2.5791,-2.5787,-2.5709,-2.5788,-2.5802,-2.5819,-2.5834,-2.5848,-2.5859,-2.5705,-2.5704,-2.5704,-2.6054,-2.6008,-2.6047,-2.5996,-2.5993,-2.5943,-2.5935,-2.5906,-2.5861,-2.5881,-2.5878,-2.5976,-2.5996,-2.6005,-2.6018,-2.5896,-2.5896,-2.5896,-2.5897,-2.6167,-2.6185,-2.6124,-2.614,-2.6091,-2.6102,-2.6056,-2.6023,-2.6025,-2.5974,-2.5987,-2.5933,-2.6024,-2.6032,-2.5902,-2.5901,-2.59,-2.59,-2.5899,-2.6267,-2.6268,-2.625,-2.624,-2.6238,-2.6185,-2.619,-2.6146,-2.6104,-2.6117,-2.6108,-2.6107,-2.6097,-2.6117,-2.6117,-2.6117,-2.6118,-2.6118,-2.6118,-2.6377,-2.6355,-2.6365,-2.6341,-2.6332,-2.6316,-2.6266,-2.6256,-2.6233,-2.62,-2.6199,-2.615,-2.6043,-2.6015,-2.6123,-2.6122,-2.6122,-2.6121,-2.6121,-2.6503,-2.6468,-2.6484,-2.6476,-2.6443,-2.6442,-2.6387,-2.637,-2.6355,-2.6359,-2.6308,-2.6237,-2.6211,-2.62,-2.6176,-2.632,-2.632,-2.632,-2.632,-2.6585,-2.6569,-2.6575,-2.6565,-2.655,-2.6502,-2.652,-2.6482,-2.6436,-2.6424,-2.6397,-2.6363,-2.6355,-2.6334,-2.632,-2.6297,-2.6468,-2.6468,-2.6468,-2.6659,-2.664,-2.6664,-2.6621,-2.6592,-2.6567,-2.6582,-2.6571,-2.6512,-2.6473,-2.6412,-2.6406,-2.6351,-2.6336,-2.6292,-2.6272,-2.6229,0,0]},{"header":{"parameterUnit":"m.s-1","parameterCategory":1,"la1":30.2992,"la2":30.254,"lo1":-89.0895,"lo2":-89.0443,"dy":0.0025,"dx":0.0025,"nx":19,"ny":19,"refTime":"2026-04-25T03:00:00:Z","depth":0,"parameterNumber":3,"parameterNumberName":"V-component_of_WINDS"},"data":[0,0,0,2.9848,2.9852,3.003,3.0031,3.0243,3.0244,0,0,0,0,0,0,0,0,0,0,0,2.9787,2.9788,2.9848,2.9852,3.003,3.0031,3.0242,3.0244,0,0,0,0,0,0,0,0,0,0,0,2.9787,2.9788,2.979,2.9853,3.003,3.0031,3.0242,3.0113,0,0,0,0,0,0,0,0,0,0,2.9943,2.9879,2.9788,2.979,2.9854,3.003,3.0031,3.0107,3.0121,3.0156,0,3.0186,0,3.0218,3.0258,3.0258,0,0,0,2.9858,2.9867,2.9923,2.979,2.9855,3.0029,2.9951,3.0115,3.0131,3.0174,3.0189,3.0197,3.0222,3.0259,3.026,3.0445,3.0445,0,0,2.9848,2.9815,2.9912,2.9932,2.9905,2.9946,2.9957,3.0125,3.0138,3.019,3.0202,3.0225,3.026,3.0262,3.0444,3.0445,0,0,0,2.9816,2.9807,2.9859,2.9923,2.9957,2.9951,2.9964,3.013,3.015,3.0205,3.0228,3.0262,3.0264,3.0444,3.0445,3.0442,0,0,0,2.981,2.9789,2.9855,2.9836,2.9953,3.0046,2.9965,3.0139,3.0159,3.0227,3.0262,3.0266,3.0443,3.0444,3.0441,3.0446,0,0,0,2.9778,2.9785,2.9808,2.9834,2.9909,3.0044,3.0074,3.0144,3.0173,3.0259,3.0266,3.0443,3.0444,3.0439,3.0444,3.0485,0,0,0,2.9734,2.9802,2.9807,2.9893,2.9907,3.0041,3.0073,3.0174,3.0248,3.0263,3.0443,3.0444,3.0439,3.0443,3.0483,3.0513,3.0522,0,0,2.9801,2.9809,2.9862,2.9872,2.9996,3.0017,3.0141,3.024,3.0278,3.0387,3.0392,3.0441,3.0444,3.0485,3.0586,3.0593,0,0,0,2.9872,2.9909,2.995,3.0019,3.0096,3.0163,3.0246,3.0283,3.0377,3.0327,3.0468,3.0471,3.0496,3.0511,3.0518,3.0541,3.045,3.045,3.045,2.9918,2.9964,3.0055,3.0122,3.0189,3.0275,3.0333,3.0396,3.0423,3.0455,3.0488,3.0544,3.0561,3.0566,3.059,3.0507,3.0507,3.0507,3.0507,3.002,3.0081,3.0115,3.0215,3.0264,3.0348,3.0433,3.0449,3.0533,3.0523,3.0547,3.0532,3.0572,3.0596,3.0507,3.0507,3.0507,3.0507,3.0507,3.0056,3.0093,3.0137,3.0242,3.0317,3.0384,3.0464,3.0505,3.0543,3.0568,3.0607,3.0607,3.0612,3.0583,3.0584,3.0584,3.0584,3.0584,3.0584,3.0075,3.0125,3.0188,3.0277,3.0327,3.0397,3.0484,3.0534,3.06,3.0623,3.0624,3.0647,3.0568,3.0547,3.0588,3.0587,3.0587,3.0586,3.0586,3.0161,3.0148,3.0246,3.0296,3.0404,3.0476,3.0527,3.0626,3.0673,3.0711,3.0729,3.0664,3.0675,3.067,3.0653,3.0719,3.0719,3.0719,3.0719,3.0191,3.0201,3.031,3.0387,3.0468,3.0525,3.0632,3.0701,3.0769,3.0801,3.0797,3.0778,3.0772,3.0786,3.0779,3.0764,3.0857,3.0857,3.0857,3.0247,3.0266,3.0351,3.0418,3.0506,3.0579,3.0682,3.0769,3.0843,3.0863,3.0827,3.0821,3.0791,3.0779,3.0797,3.0785,3.0758,0,0]}]]